User: anonymous   Login
Location: Unspecified
(0.0000°N, 0.0000°E)
Time: 02:20:48
(UTC+02:00)
Language:

Cosmos 1538 Rocket - Orbit

View from above orbital plane
View from above orbital plane
View from above satellite
View from above satellite

Ground track
Ground track

The orbit data is extracted from the following two-line orbital elements,

1 14760U 84019B   17177.93086416 +.00000057 +00000-0 +28813-4 0  9998
2 14760 074.0440 103.9777 0028528 319.4973 158.3138 14.35823290744768
Epoch (UTC): 26 June 2017 22:20:26
Eccentricity: 0.0028528
inclination: 74.0440°
perigee height: 752 km
apogee height: 793 km
right ascension of ascending node: 103.9777°
argument of perigee: 319.4973°
revolutions per day: 14.35823290
mean anomaly at epoch: 158.3138°
orbit number at epoch: 74476

The dashed part of the orbit path shows where the satellite is in the earth's shadow,  

DLR